TIME,DELAY(SENSOR),PRES,OXYGEN,RAWTEMP,T(OPTODE),TCPHASE,FLUOR,BETA(BETA700),BETA(BETA412),BETA(BETA440),CDOM,C(CSC),ED(ED411.90),ED(ED443.80),ED(ED489.40),ED(ED554.70),LU(LU412.20),LU(LU443.80),LU(LU489.40),LU(LU555.00),COMP,TILTX,TILTY,CHECK
1360622809,5804,859.6300048828125000,178.4781036376953000,473.1241149902344000,8.3609666824340820,38.8396682739257800,64,182,97,79,80,11933,2146959789,2147514477,2147296960,2147509220,2147089398,2146927716,2147709266,2147121627,1047,-1,9,59835
1360626405,5805,953.0300292968750000,227.1033020019531200,535.6231079101562000,6.4199051856994630,36.9613914489746100,65,184,97,79,81,11930,2146960054,2147518619,2147301065,2147520630,2147089353,2146921371,2147727616,2147124004,1336,-1,9,54010
1360630005,5804,973.1799926757812000,245.5874023437500000,553.8836059570312000,5.8474831581115720,36.3291893005371100,66,190,99,78,81,11926,2146965915,2147515126,2147300909,2147519689,2147089773,2146920813,2147729892,2147122011,3350,-1,8,7936
1360633605,5807,980.6300048828125000,250.8081970214843800,557.2816162109375000,5.7406749725341800,36.1329917907714840,70,189,99,79,80,11925,2146964132,2147516525,2147304210,2147521600,2147093120,2146916562,2147729398,2147121618,988,-1,8,62598
1360637205,5807,980.5399780273438000,253.5993041992187500,558.7982788085938000,5.6929678916931150,36.0245399475097660,69,189,98,80,81,11885,2146962450,2147519040,2147305088,2147520036,2147089508,2146912557,2147730925,2147126125,3211,-1,9,23982
1360640805,5805,982.8400268554688000,253.8903045654297000,559.1547851562500000,5.6817531585693360,36.0171089172363300,71,191,98,81,81,11883,2146961947,2147519652,2147305408,2147523904,2147091657,2146916032,2147731593,2147122422,3161,0,9,35499
1360644405,5805,989.1900024414062000,253.4862060546875000,560.0222778320312000,5.6544589996337890,36.0523986816406250,69,191,99,80,81,11881,2146962102,2147517632,2147304502,2147521197,2147088923,2146920073,2147729069,2147123456,3457,-1,9,55430
1360648005,5806,989.7399902343750000,253.6383056640625000,561.5090942382812000,5.6076598167419430,36.0721092224121100,69,192,100,79,81,11881,2146961261,2147517796,2147306624,2147523227,2147087789,2146922340,2147729462,2147122733,162,-1,9,46434
1360651605,5805,986.4400024414062000,255.1864013671875000,562.2382202148438000,5.5847067832946780,36.0110511779785160,69,193,99,80,81,11876,2146965979,2147518985,2147303643,2147525037,2147091840,2146918756,2147732544,2147122130,440,-1,8,23387
1360655205,5806,991.4899902343750000,256.8363952636719000,565.2241821289062000,5.4906477928161620,35.9873313903808600,69,195,99,79,81,11880,2146961435,2147518765,2147306386,2147523273,2147089152,2146913545,2147728548,2147118957,239,-1,9,40328
1360658805,5807,996.2399902343750000,259.0346984863281000,565.0167236328125000,5.4971890449523930,35.8786697387695300,70,195,99,78,82,11873,2146962166,2147514496,2147303305,2147523684,2147089472,2146917924,2147730212,2147125504,56,-1,8,48721
1360662405,5809,1001.6900024414062000,258.2275085449219000,562.1110229492188000,5.5887131690979000,35.8636589050293000,69,196,99,79,81,11873,2146961197,2147519762,2147303030,2147523830,2147090633,2146915995,2147731053,2147118582,3573,-1,9,17496
1360666005,5804,994.7800292968750000,255.2919006347656200,561.4456787109375000,5.6096568107604980,35.9912796020507800,69,192,98,80,81,11876,2146960859,2147519588,2147302683,2147518692,2147086354,2146922203,2147728932,2147122377,2902,-1,9,40870
1360669605,5807,991.2399902343750000,255.4319000244140600,564.4760131835938000,5.5142230987548830,36.0402908325195300,69,194,99,79,80,11869,2146960594,2147516269,2147305152,2147521261,2147086875,2146918601,2147733586,2147119716,209,-1,9,39982
1360673205,5806,993.4899902343750000,262.1413879394531000,566.4752197265625000,5.4512228965759280,35.7592811584472660,69,206,99,80,81,11867,2146961042,2147518043,2147301714,2147524489,2147086994,2146921920,2147732873,2147119899,3540,0,9,18789
1360676805,5807,993.9000244140625000,262.1630859375000000,567.0659179687500000,5.4326019287109375,35.7694511413574200,70,220,99,80,81,11874,2146964306,2147513828,2147306285,2147522816,2147090048,2146918756,2147735378,2147120384,2747,-1,9,37767
1360680405,5806,995.8300170898438000,261.1954040527344000,567.1018066406250000,5.4314689636230470,35.8151817321777340,69,195,100,81,81,11869,2146961618,2147518902,2147302098,2147524644,2147086381,2146915291,2147733842,2147120265,3480,-1,8,36366
1360684005,5805,997.3200073242188000,262.1704101562500000,567.5443725585938000,5.4175148010253910,35.7774810791015600,69,196,99,80,80,11866,2146963282,2147518518,2147306240,2147522669,2147091428,2146918528,2147732224,2147120630,3567,-1,9,50344
1360687605,5807,999.7800292968750000,262.8572082519531000,566.8659057617188000,5.4389061927795410,35.7333488464355500,69,196,99,78,81,11864,2146961782,2147516617,2147305435,2147522816,2147087725,2146921344,2147730733,2147123721,221,-1,8,54282
1360691205,5806,998.1900024414062000,259.9393005371094000,567.0856933593750000,5.4319758415222170,35.8739089965820300,69,197,101,79,81,11863,2146961353,2147515648,2147302034,2147521453,2147088795,2146917723,2147730486,2147121179,3368,-1,9,24199
1360694805,5809,998.9799804687500000,261.0235900878906000,567.0006713867188000,5.4346542358398440,35.8211212158203100,69,196,98,79,80,11864,2146961764,2147515428,2147301769,2147527643,2147091638,2146924681,2147729536,2147121938,9,0,8,56824
1360698405,5806,998.2199707031250000,261.0221862792969000,566.6959228515625000,5.4442648887634280,35.8155288696289060,69,197,99,79,81,11865,2146961069,2147520100,2147301915,2147522934,2147088777,2146919094,2147731337,2147123318,120,-1,8,56336
1360702005,5804,999.7000122070312000,262.1474914550781000,567.1033935546875000,5.4314188957214355,35.7707405090332000,68,197,98,79,81,11862,2146964763,2147516342,2147302528,2147521380,2147092187,2146918811,2147733065,2147120155,104,-1,8,49221
1360705605,5806,1005.3699951171875000,263.7709045410156000,567.0441894531250000,5.4332852363586430,35.6938896179199200,68,196,98,80,80,11865,2146961965,2147517540,2147302409,2147521718,2147086482,2146919881,2147733037,2147124662,347,-1,8,51515
1360709205,5808,998.1199951171875000,258.8826904296875000,567.0072021484375000,5.4344520568847660,35.9224281311035160,68,198,99,80,81,11859,2146967094,2147514779,2147303817,2147521472,2147088027,2146922523,2147733312,2147123629,40,-1,8,64032
1360712805,5808,997.0700073242188000,261.6881103515625000,567.1060180664062000,5.4313368797302250,35.7922096252441400,69,198,98,81,80,11853,2146963520,2147516544,2147304027,2147522870,2147088173,2146920064,2147731794,2147121124,3556,-1,9,33231
1360716405,5806,995.4699707031250000,264.7037963867187500,567.9166259765625000,5.4057788848876950,35.6668014526367200,68,198,99,79,81,11857,2146961901,2147518016,2147303597,2147519670,2147089097,2146918253,2147731117,2147118848,3062,0,8,58148
1360720005,5804,987.2600097656250000,263.8829956054687500,568.9993286132812000,5.3716301918029785,35.7249717712402340,69,197,99,80,81,11854,2146961728,2147516781,2147304941,2147521408,2147088265,2146927268,2147732562,2147123035,2961,-1,9,38043
1360723605,5805,989.1599731445312000,265.5747985839844000,571.4705200195312000,5.2936549186706540,35.6922302246093750,68,199,99,80,82,11852,2146961947,2147518573,2147305536,2147522980,2147087890,2146918537,2147735286,2147117366,3453,-1,8,2238
1360727205,5803,992.2500000000000000,270.8382873535156000,573.0003051757812000,5.2453589439392090,35.4807014465332000,69,199,101,79,80,11849,2146961810,2147516306,2147300315,2147524278,2147088219,2146909193,2147731913,2147118427,3387,-1,8,7248
1360730805,5808,994.5300292968750000,270.5422058105469000,573.1013183593750000,5.2421698570251465,35.4956588745117200,68,198,100,79,81,11846,2146962560,2147517330,2147304530,2147527862,2147090057,2146921947,2147736192,2147118829,54,-1,8,23538
1360734405,5806,996.5700073242188000,268.3971862792969000,572.8922119140625000,5.2487740516662600,35.5891609191894500,67,199,99,79,81,11854,2146964461,2147519515,2147303469,2147521691,2147090194,2146915328,2147734180,2147121280,3435,-1,9,18665
1360738005,5804,997.7000122070312000,267.4354858398437500,571.7437744140625000,5.2850279808044430,35.6120491027832000,68,201,99,79,80,11850,2146964736,2147520877,2147304210,2147526326,2147088237,2146917485,2147736740,2147120155,3514,-1,9,10450
1360741605,5807,1000.7999877929688000,269.3611145019531000,571.2207031250000000,5.3015398979187010,35.5144882202148440,68,199,99,80,80,11850,2146963931,2147518372,2147306486,2147523849,2147088758,2146917357,2147731282,2147122569,301,-1,8,22385
1360745205,5804,997.5000000000000000,265.4440002441406000,571.2609252929688000,5.3002719879150390,35.6940498352050800,69,202,99,79,80,11825,2146962797,2147516845,2147303451,2147521600,2147088228,2146922276,2147730477,2147123291,3460,-1,9,31422
1360748805,5809,996.7500000000000000,267.0907897949219000,570.6483154296875000,5.3196067810058590,35.6074714660644500,68,200,99,79,80,11820,2146962267,2147517202,2147306788,2147521243,2147087497,2146921161,2147735222,2147120813,15,-1,8,2497
1360752405,5803,998.1900024414062000,266.6283874511719000,571.1077880859375000,5.3051009178161620,35.6370811462402340,68,199,99,80,81,11822,2146962514,2147516379,2147306806,2147520896,2147089234,2146915456,2147736118,2147123940,3356,-1,9,11205
1360756005,5805,999.5599975585938000,267.9224853515625000,570.8345947265625000,5.3137259483337400,35.5727615356445300,68,200,100,79,80,11821,2146962532,2147518592,2147304576,2147525540,2147087789,2146921828,2147737472,2147123556,3500,-1,9,5415
1360759605,5807,1000.7299804687500000,267.0132141113281000,570.6915893554688000,5.3182392120361330,35.6114311218261700,68,201,98,79,80,11821,2146962203,2147521764,2147302610,2147521170,2147088009,2146915776,2147733010,2147122358,3431,-1,8,30423
1360763205,5805,998.7000122070312000,266.5566101074219000,571.8668212890625000,5.2811470031738280,35.6539306640625000,67,203,98,79,81,11819,2146964434,2147515620,2147307291,2147523529,2147088758,2146912950,2147731419,2147123904,208,-1,8,63119
1360766756,5806,1001.2299804687500000,268.5450134277344000,570.5805053710938000,5.3217430114746090,35.5399513244628900,68,201,99,80,81,11895,2146961755,2147514185,2147304402,2147522779,2147089380,2146918235,2147739264,2147124699,3259,-1,9,16178
